Chillicothe, MO

12:27 PM CDT on April 30, 2017 (GMT -0500)
Chillicothe

Weather History for KCDJ - October, 2012

Change the Weather History Date:

Saturday, October 27, 2012

  Actual Average (KIRK) Record (KIRK)
Temperature  
Mean Temperature 36 °F -  
Max Temperature 46 °F 62 °F 85 °F (1927)
Min Temperature 25 °F 41 °F 22 °F (2013)
Degree Days  
Heating Degree Days 30    
Moisture  
Dew Point 25 °F    
Average Humidity 71    
Maximum Humidity 88    
Minimum Humidity 46    
Precipitation  
Precipitation 0.00 in - - ()
Sea Level Pressure  
Sea Level Pressure 30.40 in    
Wind  
Wind Speed 2 mph (NNE)    
Max Wind Speed 6 mph    
Max Gust Speed -    
Averages and records for this station are not official NWS values.
T = Trace of Precipitation, MM = Missing Value Source: NWS Daily Summary

Daily Weather History Graph

Daily Weather History Graph

Search for Another Location

Airport or City:

Trip Planner

Search our weather history database for the weather conditions in past years. The results will help you decide how hot, cold, wet, or windy it might be!

Date:

Astronomy

Oct. 27, 2012 Rise Set
Actual Time 7:38 AM CDT 6:17 PM CDT
Civil Twilight 7:10 AM CDT 6:45 PM CDT
Nautical Twilight 6:38 AM CDT 7:17 PM CDT
Astronomical Twilight 6:07 AM CDT 7:48 PM CDT
Moon 5:03 PM CDT (10/27) 5:33 AM CDT (10/27)
Length of Visible Light 11h 35m
Length of Day
10h 39m
Waxing Gibbous, 96% of the Moon is Illuminated
Oct 27
Waxing Gibbous
Oct 29
Full
Nov 6
Last Quarter
Nov 13
New
Nov 20
First Quarter

Hourly Weather History & Observations

Time (CDT) Temp. Windchill Dew Point Humidity Pressure Visibility Wind Dir Wind Speed Gust Speed Precip Events Conditions
12:52 AM 33.1 °F 30.0 °F 26.1 °F 75% 30.43 in - North 3.5 mph - N/A   Unknown
1:52 AM 30.0 °F 26.5 °F 25.0 °F 82% 30.44 in - WNW 3.5 mph - N/A   Unknown
2:52 AM 28.9 °F - 24.1 °F 82% 30.44 in - Calm Calm - N/A   Unknown
3:52 AM 28.0 °F - 24.1 °F 85% 30.42 in - Calm Calm - N/A   Unknown
4:52 AM 27.0 °F - 23.0 °F 85% 30.43 in - Calm Calm - N/A   Unknown
5:52 AM 25.0 °F - 21.9 °F 88% 30.43 in - Calm Calm - N/A   Unknown
6:52 AM 25.0 °F - 21.9 °F 88% 30.45 in - Calm Calm - N/A   Unknown
7:52 AM 25.0 °F - 21.9 °F 88% 30.46 in - Calm Calm - N/A   Unknown
8:52 AM 30.9 °F 27.5 °F 26.1 °F 82% 30.47 in - North 3.5 mph - N/A   Unknown
9:52 AM 36.0 °F - 28.0 °F 73% 30.47 in - Calm Calm - N/A   Unknown
10:52 AM 41.0 °F 39.0 °F 27.0 °F 57% 30.45 in - Variable 3.5 mph - N/A   Unknown
11:52 AM 42.1 °F 38.4 °F 24.1 °F 49% 30.44 in - NNE 5.8 mph - N/A   Unknown
12:52 PM 43.0 °F - 25.0 °F 49% 30.41 in - Calm Calm - N/A   Unknown
1:52 PM 43.0 °F 39.5 °F 26.1 °F 51% 30.38 in - North 5.8 mph - N/A   Unknown
2:52 PM 44.1 °F 40.8 °F 26.1 °F 49% 30.36 in - East 5.8 mph - N/A   Unknown
3:52 PM 46.9 °F - 27.0 °F 46% 30.34 in - Variable 5.8 mph - N/A   Unknown
4:52 PM 45.0 °F 43.5 °F 26.1 °F 48% 30.33 in - NE 3.5 mph - N/A   Unknown
5:52 PM 44.1 °F 41.5 °F 25.0 °F 47% 30.33 in - NE 4.6 mph - N/A   Unknown
6:52 PM 37.9 °F - 27.0 °F 65% 30.35 in - Calm Calm - N/A   Unknown
7:52 PM 33.1 °F - 27.0 °F 78% 30.36 in - Calm Calm - N/A   Unknown
8:52 PM 33.1 °F - 27.0 °F 78% 30.35 in - Calm Calm - N/A   Unknown
9:52 PM 32.0 °F - 27.0 °F 82% 30.36 in - Calm Calm - N/A   Unknown
10:52 PM 32.0 °F - 27.0 °F 82% 30.37 in - Calm Calm - N/A   Unknown
11:52 PM 32.0 °F - 28.0 °F 85% 30.38 in - Calm Calm - N/A   Unknown